アトラス彗星

C/2017 K4 ( ATLAS )

English version
Home page
Updated on July 8, 2017

---------------------------------------------------------------------

・ プロフィール

発見日 2017年5月26日
発見光度 17.0等
発見者 Asteroid Terrestrial-impact Last Alert System (ATLAS) Team

・ 写真集

・ 軌道要素

Epoch 2018 Jan. 2.0 TT = JDT 2458120.5
T 2018 Jan. 8.01272 TT                                  MPCW
q   2.6481585            (2000.0)            P               Q
n   0.00663082     Peri.   15.09965     +0.68506362     +0.68378517
a  28.0602339      Node   298.90024     -0.69457936     +0.50911065
e   0.9056259      Incl.   16.67779     -0.21965280     +0.52272764
P 149
From 161 observations 2017 May 26-June 30, mean residual 0".4.

・ 星図

・ 光度変化

        m1 = 9.0 + 5 logΔ + 10.0 log r

---------------------------------------------------------------------

軌道要素はM.P.E.C. 2017-N58に掲載されたものです。
星図はステラナビゲータ Ver.10 (アストロアーツ) で作成したものです。
光度グラフはComet for Windowsで作成したものです。

---------------------------------------------------------------------

Copyright(C) Seiichi Yoshida (comet@aerith.net). All rights reserved.